Current Conditions for Foresthill, CA. Clear skies, Dry   
Visibility: 10 miles
Space WX Alerts: ALERT:  Type II Radio Emission ( Latest Alert ) - Issue Time: 2021 May 02 1417 UTC

  Summary / Temperature 

Current Temperature
64.5°F
18.1°C
(24/hr Ago)
62.5°F
(Apparent temp)
62.2°F
Comfortable
Wind Chill Graphs
64.5°F 

64.6°F/ 18.1°C
 --- Virtual Temp: 66.7°F ---

 Temp Rate:

 24/hr Difference:

 Avg Running Temp:

 Todays High:

 Todays Low:

 Y-days High:

 Y-days Low:

 Todays WChill:

 Y-days WChill:

 Evapotranspiration:

-1.5°F/hr 

+2°F

65.9°F

85.0°F 5:21pm

59.6°F 3:40am

81.2°F 5:12pm

57.8°F 7:09am

57.1°F 3:44am

54.7°F 6:35am

0.235 in

115' Above Ground

 Temperature:

 6'AGL VRS 115'AGL:

 Avg Running Temp:

 Humidity:

 Todays High:

 Todays Low:

 Y-days High:

 Y-days Low:

77.0°F 

+12.5°F

77.0°F

0% 

82.0°F 5:00pm

75.0°F 12:00am

78.0°F 3:39pm

71.0°F 12:00am

Temp & Humidity Graphs

  Wind 

Wind Speed

 Calm

Gusting to

 9.0 mph

Wind from ESE

117°  ESE

Calm

 Avg speed:

 Wind Run:

 Peak Gust:

  2.0 mph 

69.0 miles

  18.0 mph 7:22am

  Almanac  

Moon age: 24 days,12 hours,55 minutes,26%

Waning Crescent
26%
Illuminated
24 days in cycle

 Moonrise:

 Moonset:

 Sunrise:

 Sunset:

 Solar Noon:

3:31am

2:18pm

5:58am

7:58pm

1:00pm

2min 3s more daylight tomorrow 

  Solar Radiation 

(Current Solar)
  No Sun Light
(Todays High)
 905 W/m2@12:56pm

Rain

 Rain Today:

 Rain Rate (/hr):

 Rain last hour:

 Rain Yesterday:

 This Month:

 Season Total:

8 Days Since Last Rain Day

0.00 in

0.000 in

0.00 in

0.00 in

0.00 in

22.73 in

Updated Time

Updated: 5/5/21  11:59pm

(Updated  sec ago)

Humidity & Barometer

 Humidity:

 Wetbulb:

 Dew Point:

 Barometer:

49% 

54.5°F 

44.9°F 

29.932 inHg 

 Baro Trend:  Steady 
Northern Calif
Preparedness
Fire 
Level 

    UV Index  

(Current UV)
0.0  None
(Todays High) @ 12:32pm
7.4   High

National Weather Service Forecast

Tonight

Clear
Clear
Thursday

Sunny
Sunny
Thursday
Night
Clear
Clear
Friday

Sunny
Sunny
Friday
Night
Clear
Clear
Saturday

Sunny
Sunny
Lo ≈58°F Hi ≈78°F Lo ≈49°F Hi ≈74°F Lo ≈51°F Hi ≈81°F

Foresthill Probe 2 Stats  
Foresthill Probe 2: is located on Thomas Street
at 3000 feet. The main Foresthill Weather site
is located on Melody ln at the 2860 foot elevation

Calm
61.9°F
16.6°C
Temp Rate:
-1.9°F
Calm
Gusting to
1.0 mph
(Humidity)
55%
Wind from SSE
161°  SSE
Updated: 05/05/21 - 23:59:26
 Todays High: 83.5°F 13:51
 Todays Low: 56.9°F 05:44
 Rain Today: 0.00 in
 Season Total: 23.77 in

Foresthill Wx: Monthly,Yearly, Highs and Lows 

Foresthill  
This Weather Data is coming from the main Foresthill
Weather site located on Melody ln at the 2860 foot
elevation
Not Foresthill Probe 2
Weather Data
Month
  High
Month
  Low
Year
High
Year
Low
Temp 85.0°F
5/5/21
51.2°F
5/2/21
85.0°F
5/5/21
25.3°F
1/26/21
Humidity 77%
5/1/21
20%
5/3/21
100%
1/3/21
9%
3/30/21
Heat Index 82.2°F
5/5/21
53.9°F
5/3/21
82.2°F
5/5/21
31.2°F
1/26/21
Wind Chill 85.0°F
5/5/21
49.2°F
5/2/21
85.0°F
5/5/21
12.5°F
1/26/21
Wind Gust 23 mph
5/1/21
0 mph
5/1/21
50 mph
1/19/21
0 mph
1/1/21
Barometer 29.99 in
5/1/21
29.83 in
5/2/21
30.52 in
2/21/21
29.73 in
4/13/21
ET 0.23 in
5/5/21
0.00 in
5/1/21
0.23 in
5/5/21
0.00 in
1/1/21
Dew Point 49.6°F
5/2/21
28.4°F
5/4/21
51.9°F
1/13/21
3.6°F
2/24/21
Visible Satellite Pacific Satellite US Radar Satellite Imagery Sacramento,CA.  (click to enlarge)
NWS Weather Forecast - Summary
Updated: Wednesday, May 5, 2021 - 2:37pm PDT
Elevated Fire Weather Concerns Friday into Early Next Week as Dry Offshore Winds are Expected
NWS Weather Forecast: Tonight and Thursday (Updated: Wed, 05-May-2021 2:10pm PDT)
Tonight

Clear
Clear
Lo ≈58°F
NWS forecast: Clear. Lows 53 to 63. Prevailing southwest winds up to 10 mph shifting to the east after midnight.
Thursday

Sunny
Sunny
Hi ≈78°F
NWS forecast: Sunny. Highs 73 to 83. Prevailing southeast winds up to 10 mph shifting to the southwest in the afternoon.
YR.NO 10 Day Weather forecast
Last update: 05/05/2021 @ 13:08
Next update: 05/05/2021 @ 19:08
Provided by: 22
      Temperature Precipitation Pressure Wind  
Today
05/05/2021
17:00 18:00 81°F   29.88 inHg Light breeze from southwest 6 mph
  18:00 00:00 79°F   29.87 inHg Light breeze from west-southwest 6 mph
    (Click to enlarge)
meteogram

    Forecast for next 9 days

      Temperature Precip Pressure Wind  
Thursday
05/06/2021
00:00 06:00 55°F   29.96 inHg Light breeze from east 4 mph
  06:00 12:00 52°F   29.94 inHg Light breeze from east 5 mph
  12:00 18:00 75°F   29.98 inHg Light breeze from southwest 7 mph
  18:00 00:00 72°F   29.95 inHg Gentle breeze from southwest 8 mph
      Temperature Precip Pressure Wind  
Friday
05/07/2021
00:00 06:00 54°F   30.01 inHg Light breeze from south-southeast 4 mph
  06:00 12:00 45°F   29.99 inHg Light air from east-northeast 3 mph
  12:00 18:00 68°F   29.99 inHg Light breeze from west-southwest 6 mph
  18:00 00:00 68°F   29.93 inHg Light breeze from west-northwest 6 mph
  23:00 05:00 55°F   29.98 inHg Light air from east 3 mph
      Temperature Precip Pressure Wind  
Saturday
05/08/2021
05:00 11:00 54°F   29.96 inHg Gentle breeze from east-northeast 11 mph
  11:00 17:00 73°F   29.96 inHg Gentle breeze from east-northeast 9 mph
  17:00 23:00 79°F   29.88 inHg Light breeze from east 7 mph
  23:00 05:00 57°F   29.94 inHg Gentle breeze from east-northeast 9 mph
      Temperature Precip Pressure Wind  
Sunday
05/09/2021
05:00 11:00 50°F   29.88 inHg Gentle breeze from east-northeast 8 mph
  11:00 17:00 75°F   29.86 inHg Light breeze from west-southwest 6 mph
  17:00 23:00 79°F   29.79 inHg Light breeze from west 6 mph
  23:00 05:00 55°F   29.83 inHg Light breeze from east-northeast 4 mph
      Temperature Precip Pressure Wind  
Monday
05/10/2021
05:00 11:00 59°F   29.84 inHg Gentle breeze from east-northeast 11 mph
  11:00 17:00 79°F   29.85 inHg Gentle breeze from east-northeast 8 mph
  17:00 23:00 84°F   29.78 inHg Light breeze from north-northwest 5 mph
  23:00 05:00 63°F   29.85 inHg Gentle breeze from east-northeast 9 mph
      Temperature Precip Pressure Wind  
Tuesday
05/11/2021
05:00 11:00 59°F   29.83 inHg Gentle breeze from east-northeast 10 mph
  11:00 17:00 84°F   29.85 inHg Light breeze from west-southwest 4 mph
  17:00 23:00 86°F   29.83 inHg Light breeze from southwest 6 mph
  23:00 05:00 63°F   29.91 inHg Light air from east 3 mph
      Temperature Precip Pressure Wind  
Wednesday
05/12/2021
05:00 11:00 52°F   29.88 inHg Light breeze from east-northeast 7 mph
  11:00 17:00 86°F   29.90 inHg Light breeze from west-southwest 6 mph
  17:00 23:00 86°F   29.85 inHg Gentle breeze from west 8 mph
  23:00 05:00 63°F   29.91 inHg Light air from east-northeast 3 mph
      Temperature Precip Pressure Wind  
Thursday
05/13/2021
05:00 11:00 52°F   29.87 inHg Light breeze from east-northeast 4 mph
  11:00 17:00 77°F   29.91 inHg Light breeze from southwest 7 mph
  17:00 23:00 77°F   29.89 inHg Light breeze from southwest 7 mph
  23:00 05:00 59°F   29.94 inHg Light breeze from east-southeast 4 mph
      Temperature Precip Pressure Wind  
Friday
05/14/2021
05:00 11:00 50°F   29.91 inHg Light breeze from east-southeast 4 mph
  11:00 17:00 68°F   29.94 inHg Gentle breeze from south-southwest 9 mph
  17:00 23:00 68°F   29.90 inHg Gentle breeze from south-southwest 11 mph

NOAA Local Storm Report
7 MILES NORTHEAST OF ORLAND   ( More )
DATE
04/25/2021
TIME
5:46 PM
COUNTY
TEHAMA
STATE
CA
GEOGRAPHIC
39.82N 122.10W
SOURCE
PUBLIC
TORNADO
a tornado briefly touched down on post ave. Between 4th and 5th ave. In capay on april 25. Minor damage was caused to 2 homes, including roof tiles, a carport roof, sheds and several trees. Around 40 orchard trees suffered limb damage or were uprooted. This is likely the second touchdown of a tornado reported a couple miles to the west. Multiple funnels were observed in the area from this storm.
How Close Are We To this Month's Temperature Record ?
Updated Wednesday, May 5, 2021- 11:55:01 PM

Current Temperature: 64.5°F

May's High: Temperature Record 94.3°F - Set on Thu, May 28, 2020 - 2:11:43 PM
We are currently 29.8°F Less than this Month's record High

May's Low: Temperature Record 37.2°F - Set on Mon, May 20, 2019 - 5:45:00 AM
We are currently 27.3°F More than this Month's record Low

Weather History For Thursday, May 6, 2021


On this Day - In Weather History ...
Data courtesy of weatherforyou.com
powered by Cumulus v1.9.3 (1059)
Ambient Weather VWS v14.00
Top Website Map Copyright © 2007 - 2021 Foresthillweather.com Never base important decisions on this or any weather information obtained from the Internet